| time (UTC) | temp C | wind direction | speed KPH | gust KPH | rain 1hr cm | rain 24hr cm | rain mn cm | humidity % | barometer mb |
| 20260505031517 | 17 | 168 | 0.0 | 4.8 | 0.00 | 0.00 | 0.00 | 37 | 1014.8 |
| 20260505030015 | 18 | 177 | 0.0 | 6.4 | 0.00 | 0.00 | 0.00 | 36 | 1014.9 |
| 20260505024513 | 17 | 278 | 0.0 | 3.2 | 0.00 | 0.00 | 0.00 | 37 | 1014.8 |
| 20260505023012 | 17 | 189 | 0.0 | 3.2 | 0.00 | 0.00 | 0.00 | 37 | 1014.6 |
| 20260505021512 | 17 | 193 | 0.0 | 1.6 | 0.00 | 0.00 | 0.00 | 36 | 1014.5 |
| 20260505020017 | 17 | 163 | 0.0 | 3.2 | 0.00 | 0.00 | 0.00 | 36 | 1014.5 |
| 20260505014511 | 17 | 161 | 0.0 | 4.8 | 0.00 | 0.00 | 0.00 | 36 | 1014.4 |
| 20260505013006 | 18 | 155 | 0.0 | 1.6 | 0.00 | 0.00 | 0.00 | 33 | 1014.4 |
| 20260505011510 | 18 | 155 | 0.0 | 1.6 | 0.00 | 0.00 | 0.00 | 32 | 1014.2 |
| 20260505010006 | 19 | 302 | 0.0 | 0.0 | 0.00 | 0.00 | 0.00 | 31 | 1014.2 |
| 20260505004504 | 20 | 308 | 0.0 | 1.6 | 0.00 | 0.00 | 0.00 | 29 | 1014.0 |
| 20260505003003 | 20 | 321 | 0.0 | 1.6 | 0.00 | 0.00 | 0.00 | 28 | 1013.8 |
| 20260505001614 | 20 | 323 | 0.0 | 1.6 | 0.00 | 0.00 | 0.00 | 27 | 1013.7 |
| 20260505000111 | 21 | 323 | 0.0 | 1.6 | 0.00 | 0.00 | 0.00 | 26 | 1013.7 |
| 20260504234605 | 22 | 66 | 0.0 | 6.4 | 0.00 | 0.00 | 0.00 | 23 | 1013.5 |
| 20260504233050 | 22 | 191 | 1.6 | 4.8 | 0.00 | 0.00 | 0.00 | 22 | 1013.2 |
| 20260504231540 | 23 | 184 | 1.6 | 9.7 | 0.00 | 0.00 | 0.00 | 21 | 1013.3 |
| 20260504230037 | 23 | 172 | 1.6 | 11.3 | 0.00 | 0.00 | 0.00 | 20 | 1013.3 |
| 20260504224534 | 24 | 281 | 1.6 | 11.3 | 0.00 | 0.00 | 0.00 | 21 | 1013.2 |
| 20260504223036 | 25 | 115 | 1.6 | 6.4 | 0.00 | 0.00 | 0.00 | 17 | 1013.3 |
| 20260504221535 | 25 | 14 | 1.6 | 8.0 | 0.00 | 0.00 | 0.00 | 19 | 1013.2 |
| 20260504220132 | 25 | 169 | 6.4 | 14.5 | 0.00 | 0.00 | 0.00 | 17 | 1013.3 |
| 20260504214531 | 25 | 36 | 1.6 | 12.9 | 0.00 | 0.00 | 0.00 | 16 | 1013.3 |
| 20260504213052 | 25 | 209 | 1.6 | 12.9 | 0.00 | 0.00 | 0.00 | 17 | 1013.4 |
| 20260504211530 | 25 | 169 | 6.4 | 16.1 | 0.00 | 0.00 | 0.00 | 19 | 1013.4 |
| 20260504210029 | 25 | 257 | 3.2 | 9.7 | 0.00 | 0.00 | 0.00 | 17 | 1013.4 |
| 20260504204529 | 25 | 147 | 3.2 | 14.5 | 0.00 | 0.00 | 0.00 | 16 | 1013.6 |
| 20260504203025 | 25 | 314 | 6.4 | 14.5 | 0.00 | 0.00 | 0.00 | 19 | 1013.6 |
| 20260504201526 | 25 | 155 | 8.0 | 16.1 | 0.00 | 0.00 | 0.00 | 19 | 1013.9 |
| 20260504200021 | 25 | 260 | 1.6 | 14.5 | 0.00 | 0.00 | 0.00 | 19 | 1014.2 |
| 20260504194519 | 25 | 286 | 1.6 | 14.5 | 0.00 | 0.00 | 0.00 | 22 | 1014.2 |
| 20260504193015 | 24 | 167 | 4.8 | 17.7 | 0.00 | 0.00 | 0.00 | 21 | 1014.4 |
| 20260504191513 | 24 | 207 | 6.4 | 12.9 | 0.00 | 0.00 | 0.00 | 23 | 1014.4 |
| 20260504190012 | 24 | 162 | 8.0 | 16.1 | 0.00 | 0.00 | 0.00 | 20 | 1014.6 |
| 20260504184513 | 24 | 174 | 1.6 | 9.7 | 0.00 | 0.00 | 0.00 | 20 | 1014.8 |
| 20260504183007 | 23 | 157 | 3.2 | 6.4 | 0.00 | 0.00 | 0.00 | 24 | 1015.1 |
| 20260504181506 | 23 | 176 | 6.4 | 16.1 | 0.00 | 0.00 | 0.00 | 24 | 1015.1 |
| 20260504180007 | 23 | 38 | 1.6 | 8.0 | 0.00 | 0.00 | 0.00 | 22 | 1015.3 |
| 20260504174503 | 23 | 140 | 8.0 | 17.7 | 0.00 | 0.00 | 0.00 | 24 | 1015.4 |
| 20260504173114 | 22 | 242 | 0.0 | 9.7 | 0.00 | 0.00 | 0.00 | 25 | 1015.5 |
| 20260504171559 | 22 | 88 | 3.2 | 11.3 | 0.00 | 0.00 | 0.00 | 25 | 1015.7 |
| 20260504140104 | 15 | 338 | 0.0 | 4.8 | 0.00 | 0.00 | 0.00 | 49 | 1017.3 |
| 20260504081533 | 8 | 182 | 0.0 | 0.0 | 0.00 | 0.00 | 0.00 | 61 | 1016.3 |
| 20260504050016 | 11 | 360 | 0.0 | 0.0 | 0.00 | 0.00 | 0.00 | 52 | 1016.6 |
| 20260504044532 | 11 | 360 | 0.0 | 3.2 | 0.00 | 0.00 | 0.00 | 53 | 1016.6 |
| 20260504043019 | 11 | 360 | 0.0 | 0.0 | 0.00 | 0.00 | 0.00 | 54 | 1016.5 |
| 20260504041513 | 11 | 360 | 0.0 | 0.0 | 0.00 | 0.00 | 0.00 | 53 | 1016.5 |
| 20260504040012 | 11 | 360 | 0.0 | 0.0 | 0.00 | 0.00 | 0.00 | 52 | 1016.9 |
| 20260504034508 | 12 | 360 | 0.0 | 0.0 | 0.00 | 0.00 | 0.00 | 51 | 1017.0 |
| 20260504033009 | 12 | 360 | 0.0 | 3.2 | 0.00 | 0.00 | 0.00 | 50 | 1016.9 |